This is the latest recevied weather packets stored in our database for station/object KA3BQE-13. If no packets are shown the sender has not sent any weather packets the latest 10 day(s).
| Time | Temp. | Humidity | Pressure | Rain* | Wind** | Luminosity | Snow |
|---|---|---|---|---|---|---|---|
| 1788136047 | 80° F | 74% | 763.1 mmHg | 0 in | - | 2 W/m² | - |
| 1788135741 | 79° F | 75% | 763 mmHg | 0 in | - | 4 W/m² | - |
| 1788135438 | 78° F | 82% | 763.2 mmHg | 0 in | - | 8 W/m² | - |
| 1788135138 | 79° F | 79% | 763.3 mmHg | 0 in | - | 12 W/m² | - |
| 1788134835 | 80° F | 74% | 763.2 mmHg | 0 in | - | 15 W/m² | - |
| 1788134529 | 80° F | 74% | 763.3 mmHg | 0 in | - | 19 W/m² | - |
| 1788134228 | 79° F | 76% | 763.3 mmHg | 0 in | - | 22 W/m² | - |
| 1788133923 | 79° F | 80% | 763.2 mmHg | 0 in | - | 28 W/m² | - |
| 1788133618 | 80° F | 80% | 763.6 mmHg | 0 in | - | 36 W/m² | - |
| 1788133314 | 81° F | 77% | 763.4 mmHg | 0 in | - | 45 W/m² | - |
| 1788133009 | 82° F | 72% | 763.3 mmHg | 0 in | - | 55 W/m² | - |
| 1788132705 | 82° F | 70% | 763.4 mmHg | 0 in | - | 59 W/m² | - |
| 1788132401 | 82° F | 71% | 763.3 mmHg | 0 in | - | 68 W/m² | - |
| 1788132096 | 83° F | 68% | 763.4 mmHg | 0 in | - | 60 W/m² | - |
| 1788131793 | 84° F | 67% | 763.4 mmHg | 0 in | - | 71 W/m² | - |
| 1788131491 | 84° F | 66% | 763.6 mmHg | 0 in | - | 90 W/m² | - |
| 1788131187 | 84° F | 66% | 763.6 mmHg | 0 in | - | 68 W/m² | - |
| 1788130887 | 84° F | 70% | 763.6 mmHg | 0 in | - | 65 W/m² | - |
| 1788130582 | 85° F | 69% | 763.3 mmHg | 0 in | - | 76 W/m² | - |
| 1788130277 | 85° F | 64% | 763.2 mmHg | 0 in | - | 92 W/m² | - |
| 1788129976 | 86° F | 63% | 763.3 mmHg | 0 in | - | 118 W/m² | - |
| 1788129672 | 85° F | 62% | 763.2 mmHg | 0 in | - | 129 W/m² | - |
| 1788129369 | 85° F | 64% | 763.3 mmHg | 0 in | - | 153 W/m² | - |
| 1788129068 | 84° F | 73% | 763.2 mmHg | 0 in | - | 156 W/m² | - |
| 1788128763 | 84° F | 71% | 763.1 mmHg | 0 in | - | 151 W/m² | - |
* Rain latest hour (hover to see other rain measurements)
** Current wind speed in m/s (hover to see current wind gust speed)